Time,TemperatureF,DewpointF,PressureIn,WindDirection,WindDirectionDegrees,WindSpeedMPH,WindSpeedGustMPH,Humidity,HourlyPrecipIn,Conditions,Clouds,dailyrainin,SoftwareType,DateUTC
2017-03-26 00:03:00,38.2,37.4,-100.00,ESE,121,5.5,10.4,97,0.00,CLR,FEW,0.00,WeatherDisplay:10.37,2017-03-26 05:03:00,
2017-03-26 00:08:00,38.2,37.4,-100.00,East,86,4.8,8.1,97,0.00,CLR,FEW,0.00,WeatherDisplay:10.37,2017-03-26 05:08:00,
2017-03-26 00:13:00,38.2,37.4,-100.00,East,79,3.1,5.8,97,0.00,CLR,FEW,0.00,WeatherDisplay:10.37,2017-03-26 05:13:00,
2017-03-26 00:18:00,38.1,37.3,-100.00,East,88,5.1,11.5,97,0.00,CLR,FEW,0.00,WeatherDisplay:10.37,2017-03-26 05:18:00,
2017-03-26 00:23:00,38.1,37.3,-100.00,NNE,16,4.6,9.2,97,0.00,CLR,FEW,0.00,WeatherDisplay:10.37,2017-03-26 05:23:00,
2017-03-26 00:28:00,38.1,37.3,-100.00,East,89,7.4,11.5,97,0.00,CLR,FEW,0.00,WeatherDisplay:10.37,2017-03-26 05:28:00,
2017-03-26 00:33:00,38.2,37.4,-100.00,ESE,104,5.7,8.1,97,0.00,CLR,FEW,0.00,WeatherDisplay:10.37,2017-03-26 05:33:00,
2017-03-26 00:38:00,38.2,37.4,-100.00,East,96,5.5,10.4,97,0.00,CLR,FEW,0.00,WeatherDisplay:10.37,2017-03-26 05:38:00,
2017-03-26 00:43:00,38.2,37.4,-100.00,East,83,4.3,8.1,97,0.00,CLR,FEW,0.00,WeatherDisplay:10.37,2017-03-26 05:43:00,
2017-03-26 00:48:00,38.1,37.3,-100.00,East,92,4.5,8.1,97,0.00,CLR,FEW,0.00,WeatherDisplay:10.37,2017-03-26 05:48:00,
2017-03-26 00:53:00,38.2,37.4,-100.00,NNE,28,2.6,4.6,97,0.00,CLR,FEW,0.00,WeatherDisplay:10.37,2017-03-26 05:53:00,
2017-03-26 00:58:00,38.2,37.4,-100.00,East,99,7.5,10.4,97,0.00,CLR,FEW,0.00,WeatherDisplay:10.37,2017-03-26 05:58:00,
2017-03-26 01:03:00,38.2,37.4,-100.00,East,97,2.3,7.6,97,0.00,CLR,FEW,0.00,WeatherDisplay:10.37,2017-03-26 06:03:00,
2017-03-26 01:08:00,38.1,37.3,-100.00,East,90,3.9,5.8,97,0.00,CLR,FEW,0.00,WeatherDisplay:10.37,2017-03-26 06:08:00,
2017-03-26 01:18:00,38.2,37.4,-100.00,ESE,104,4.3,6.9,97,0.00,CLR,FEW,0.00,WeatherDisplay:10.37,2017-03-26 06:18:00,
2017-03-26 01:23:00,38.2,37.4,-100.00,NE,41,3.9,5.8,97,0.00,CLR,FEW,0.00,WeatherDisplay:10.37,2017-03-26 06:23:00,
2017-03-26 01:28:00,38.3,37.5,-100.00,East,82,4.5,7.6,97,0.00,CLR,FEW,0.00,WeatherDisplay:10.37,2017-03-26 06:28:00,
2017-03-26 01:33:00,38.3,37.5,-100.00,ENE,76,5.8,8.1,97,0.00,CLR,FEW,0.00,WeatherDisplay:10.37,2017-03-26 06:33:00,
2017-03-26 01:38:00,38.2,37.4,-100.00,East,83,6.3,11.5,97,0.00,CLR,FEW,0.00,WeatherDisplay:10.37,2017-03-26 06:38:00,
2017-03-26 01:43:00,38.3,37.5,-100.00,ESE,121,5.3,8.1,97,0.00,CLR,FEW,0.00,WeatherDisplay:10.37,2017-03-26 06:43:00,
2017-03-26 01:48:00,38.4,37.6,-100.00,SE,127,6.1,9.2,97,0.00,CLR,FEW,0.00,WeatherDisplay:10.37,2017-03-26 06:48:00,
2017-03-26 01:53:00,38.4,37.6,-100.00,NE,55,4.5,6.9,97,0.00,CLR,FEW,0.00,WeatherDisplay:10.37,2017-03-26 06:53:00,
2017-03-26 01:58:00,38.4,37.6,-100.00,NE,54,3.0,4.6,97,0.00,CLR,FEW,0.00,WeatherDisplay:10.37,2017-03-26 06:58:00,
2017-03-26 02:03:00,38.4,37.6,-100.00,East,97,4.4,7.0,97,0.00,CLR,FEW,0.00,WeatherDisplay:10.37,2017-03-26 07:03:00,
2017-03-26 02:08:00,38.5,37.7,-100.00,ENE,65,5.5,8.1,97,0.00,CLR,FEW,0.00,WeatherDisplay:10.37,2017-03-26 07:08:00,
2017-03-26 02:13:00,38.5,37.7,-100.00,NE,44,5.9,10.4,97,0.00,CLR,FEW,0.00,WeatherDisplay:10.37,2017-03-26 07:13:00,
2017-03-26 02:18:00,38.5,37.7,-100.00,East,90,1.9,6.9,97,0.00,CLR,FEW,0.00,WeatherDisplay:10.37,2017-03-26 07:18:00,
2017-03-26 02:23:00,38.5,37.7,-100.00,East,80,4.2,6.9,97,0.00,CLR,FEW,0.00,WeatherDisplay:10.37,2017-03-26 07:23:00,
2017-03-26 02:28:00,38.6,37.8,-100.00,ENE,68,4.2,5.8,97,0.00,CLR,FEW,0.00,WeatherDisplay:10.37,2017-03-26 07:28:00,
2017-03-26 02:33:00,38.5,37.7,-100.00,ENE,72,6.8,9.6,97,0.00,CLR,FEW,0.00,WeatherDisplay:10.37,2017-03-26 07:33:00,
2017-03-26 02:34:00,38.6,37.8,-100.00,NE,55,4.9,11.5,97,0.00,CLR,FEW,0.00,WeatherDisplay:10.37,2017-03-26 07:34:00,
2017-03-26 02:39:00,38.6,37.8,-100.00,NE,51,5.0,6.9,97,0.00,CLR,FEW,0.00,WeatherDisplay:10.37,2017-03-26 07:39:00,
2017-03-26 02:44:00,38.6,37.8,-100.00,East,97,2.7,3.5,97,0.00,CLR,FEW,0.00,WeatherDisplay:10.37,2017-03-26 07:44:00,
2017-03-26 02:49:00,38.6,37.8,-100.00,NNE,16,4.4,6.9,97,0.00,CLR,FEW,0.00,WeatherDisplay:10.37,2017-03-26 07:49:00,
2017-03-26 02:54:00,38.6,37.8,-100.00,ENE,78,4.6,7.4,97,0.00,CLR,FEW,0.00,WeatherDisplay:10.37,2017-03-26 07:54:00,
2017-03-26 02:59:00,38.7,37.9,-100.00,NNE,20,6.0,10.4,97,0.00,CLR,FEW,0.00,WeatherDisplay:10.37,2017-03-26 07:59:00,
2017-03-26 03:04:00,38.7,37.9,-100.00,East,82,3.8,5.8,97,0.00,CLR,FEW,0.00,WeatherDisplay:10.37,2017-03-26 08:04:00,
2017-03-26 03:09:00,38.7,37.9,-100.00,ENE,75,2.3,6.9,97,0.00,CLR,FEW,0.00,WeatherDisplay:10.37,2017-03-26 08:09:00,
2017-03-26 03:14:00,38.7,37.9,-100.00,ENE,69,4.9,6.9,97,0.00,CLR,FEW,0.00,WeatherDisplay:10.37,2017-03-26 08:14:00,
2017-03-26 03:19:00,38.7,37.9,-100.00,ENE,59,4.5,9.2,97,0.00,CLR,FEW,0.00,WeatherDisplay:10.37,2017-03-26 08:19:00,
2017-03-26 03:24:00,38.7,37.9,-100.00,NE,42,4.1,5.8,97,0.00,CLR,FEW,0.00,WeatherDisplay:10.37,2017-03-26 08:24:00,
2017-03-26 03:29:00,38.7,37.9,-100.00,NE,48,2.0,4.6,97,0.00,CLR,FEW,0.00,WeatherDisplay:10.37,2017-03-26 08:29:00,
2017-03-26 03:34:00,38.7,37.9,-100.00,NE,47,3.4,8.1,97,0.00,CLR,FEW,0.00,WeatherDisplay:10.37,2017-03-26 08:34:00,
2017-03-26 03:39:00,38.8,38.0,-100.00,NE,49,3.5,6.9,97,0.00,CLR,FEW,0.00,WeatherDisplay:10.37,2017-03-26 08:39:00,
2017-03-26 03:44:00,38.8,38.0,-100.00,NE,44,3.7,8.1,97,0.00,CLR,FEW,0.00,WeatherDisplay:10.37,2017-03-26 08:44:00,
2017-03-26 03:49:00,38.7,37.9,-100.00,NE,38,3.9,6.9,97,0.00,CLR,FEW,0.00,WeatherDisplay:10.37,2017-03-26 08:49:00,
2017-03-26 03:54:00,38.8,38.0,-100.00,SE,143,4.4,6.9,97,0.00,CLR,FEW,0.00,WeatherDisplay:10.37,2017-03-26 08:54:00,
2017-03-26 03:59:00,38.8,38.0,-100.00,NE,37,4.3,7.3,97,0.00,CLR,FEW,0.00,WeatherDisplay:10.37,2017-03-26 08:59:00,
2017-03-26 04:04:00,38.8,38.0,-100.00,ENE,58,2.1,6.9,97,0.00,CLR,FEW,0.00,WeatherDisplay:10.37,2017-03-26 09:04:00,
2017-03-26 04:09:00,38.8,38.0,-100.00,ENE,61,3.4,3.5,97,0.00,CLR,FEW,0.00,WeatherDisplay:10.37,2017-03-26 09:09:00,
2017-03-26 04:14:00,38.7,38.2,-100.00,East,80,4.9,9.2,98,0.00,CLR,FEW,0.00,WeatherDisplay:10.37,2017-03-26 09:14:00,
2017-03-26 04:19:00,38.8,38.0,-100.00,NE,52,2.2,3.0,97,0.00,CLR,FEW,0.00,WeatherDisplay:10.37,2017-03-26 09:19:00,
2017-03-26 04:24:00,38.8,38.3,-100.00,East,96,5.9,7.3,98,0.00,CLR,FEW,0.00,WeatherDisplay:10.37,2017-03-26 09:24:00,
2017-03-26 04:30:00,38.9,38.4,-100.00,SE,145,4.8,6.8,98,0.00,CLR,FEW,0.00,WeatherDisplay:10.37,2017-03-26 09:30:00,
2017-03-26 04:35:00,38.8,38.3,-100.00,East,79,3.3,4.6,98,0.00,CLR,FEW,0.00,WeatherDisplay:10.37,2017-03-26 09:35:00,
2017-03-26 04:40:00,38.9,38.4,-100.00,SE,134,4.5,6.9,98,0.00,CLR,FEW,0.00,WeatherDisplay:10.37,2017-03-26 09:40:00,
2017-03-26 04:45:00,38.9,38.4,-100.00,East,86,3.4,5.8,98,0.00,CLR,FEW,0.00,WeatherDisplay:10.37,2017-03-26 09:45:00,
2017-03-26 04:50:00,38.9,38.4,-100.00,ENE,78,2.5,3.5,98,0.00,CLR,FEW,0.00,WeatherDisplay:10.37,2017-03-26 09:50:00,
2017-03-26 04:55:00,38.9,38.4,-100.00,NE,44,1.4,3.5,98,0.00,CLR,FEW,0.00,WeatherDisplay:10.37,2017-03-26 09:55:00,
2017-03-26 05:00:00,39.0,38.5,-100.00,NE,55,2.5,3.5,98,0.00,CLR,FEW,0.00,WeatherDisplay:10.37,2017-03-26 10:00:00,
2017-03-26 05:05:00,39.0,38.5,-100.00,ESE,123,5.3,5.3,98,0.00,CLR,FEW,0.00,WeatherDisplay:10.37,2017-03-26 10:05:00,
2017-03-26 05:10:00,39.1,38.6,-100.00,NE,42,2.1,5.8,98,0.00,CLR,FEW,0.00,WeatherDisplay:10.37,2017-03-26 10:10:00,
2017-03-26 05:15:00,39.1,38.6,-100.00,ENE,58,1.3,5.8,98,0.00,CLR,FEW,0.00,WeatherDisplay:10.37,2017-03-26 10:15:00,
2017-03-26 05:20:00,39.2,38.7,-100.00,NE,34,3.0,5.8,98,0.00,CLR,FEW,0.00,WeatherDisplay:10.37,2017-03-26 10:20:00,
2017-03-26 05:21:00,39.0,38.5,-100.00,ESE,114,5.1,5.8,98,0.00,CLR,FEW,0.00,WeatherDisplay:10.37,2017-03-26 10:21:00,
2017-03-26 05:26:00,39.1,38.6,-100.00,ESE,107,3.0,5.8,98,0.00,CLR,FEW,0.00,WeatherDisplay:10.37,2017-03-26 10:26:00,
2017-03-26 05:31:00,39.2,38.7,-100.00,ENE,78,4.7,8.1,98,0.00,CLR,FEW,0.00,WeatherDisplay:10.37,2017-03-26 10:31:00,
2017-03-26 05:36:00,39.2,38.7,-100.00,North,11,3.9,6.9,98,0.00,CLR,FEW,0.00,WeatherDisplay:10.37,2017-03-26 10:36:00,
2017-03-26 05:41:00,39.3,38.8,-100.00,NNE,28,4.2,5.3,98,0.00,CLR,FEW,0.00,WeatherDisplay:10.37,2017-03-26 10:41:00,
2017-03-26 05:46:00,39.3,38.8,-100.00,ENE,59,0.4,6.9,98,0.00,CLR,FEW,0.00,WeatherDisplay:10.37,2017-03-26 10:46:00,
2017-03-26 05:51:00,39.3,38.8,-100.00,ENE,61,2.6,5.8,98,0.00,CLR,FEW,0.00,WeatherDisplay:10.37,2017-03-26 10:51:00,
2017-03-26 05:56:00,39.3,38.8,-100.00,ENE,68,1.2,3.5,98,0.00,CLR,FEW,0.00,WeatherDisplay:10.37,2017-03-26 10:56:00,
2017-03-26 06:01:00,39.4,38.9,-100.00,NNE,25,4.3,5.8,98,0.00,CLR,FEW,0.00,WeatherDisplay:10.37,2017-03-26 11:01:00,
2017-03-26 06:06:00,39.3,38.8,-100.00,ENE,75,1.1,2.7,98,0.00,CLR,FEW,0.00,WeatherDisplay:10.37,2017-03-26 11:06:00,
2017-03-26 06:11:00,39.3,38.8,-100.00,East,92,3.9,5.8,98,0.00,CLR,FEW,0.00,WeatherDisplay:10.37,2017-03-26 11:11:00,
2017-03-26 06:16:00,39.3,38.8,-100.00,East,89,3.4,8.1,98,0.00,CLR,FEW,0.00,WeatherDisplay:10.37,2017-03-26 11:16:00,
2017-03-26 06:21:00,39.4,38.9,-100.00,NE,44,1.6,3.5,98,0.00,CLR,FEW,0.00,WeatherDisplay:10.37,2017-03-26 11:21:00,
2017-03-26 06:26:00,39.3,38.8,-100.00,ENE,58,2.8,5.8,98,0.00,CLR,FEW,0.00,WeatherDisplay:10.37,2017-03-26 11:26:00,
2017-03-26 06:31:00,39.3,38.8,-100.00,East,96,2.8,6.9,98,0.00,CLR,FEW,0.00,WeatherDisplay:10.37,2017-03-26 11:31:00,
2017-03-26 06:36:00,39.4,38.9,-100.00,NE,48,5.2,8.1,98,0.00,CLR,FEW,0.00,WeatherDisplay:10.37,2017-03-26 11:36:00,
2017-03-26 06:41:00,39.4,38.9,-100.00,NE,40,4.8,6.9,98,0.00,CLR,FEW,0.00,WeatherDisplay:10.37,2017-03-26 11:41:00,
2017-03-26 06:46:00,39.4,38.9,-100.00,NNE,18,1.4,5.8,98,0.00,CLR,FEW,0.00,WeatherDisplay:10.37,2017-03-26 11:46:00,
2017-03-26 06:51:00,39.4,38.9,-100.00,ENE,59,2.8,3.5,98,0.00,CLR,FEW,0.00,WeatherDisplay:10.37,2017-03-26 11:51:00,
2017-03-26 06:56:00,39.4,38.9,-100.00,NE,41,3.4,5.8,98,0.00,CLR,FEW,0.00,WeatherDisplay:10.37,2017-03-26 11:56:00,
2017-03-26 07:01:00,39.4,38.9,-100.00,ESE,120,3.5,5.8,98,0.00,CLR,FEW,0.00,WeatherDisplay:10.37,2017-03-26 12:01:00,
2017-03-26 07:06:00,39.5,39.0,-100.00,NE,42,5.0,7.8,98,0.00,CLR,FEW,0.00,WeatherDisplay:10.37,2017-03-26 12:06:00,
2017-03-26 07:11:00,39.5,39.0,-100.00,ENE,58,1.5,3.5,98,0.00,CLR,FEW,0.00,WeatherDisplay:10.37,2017-03-26 12:11:00,
2017-03-26 07:16:00,39.5,39.0,-100.00,ENE,58,4.4,5.8,98,0.00,CLR,FEW,0.00,WeatherDisplay:10.37,2017-03-26 12:16:00,
2017-03-26 07:21:00,39.5,39.0,-100.00,NE,34,4.1,6.9,98,0.00,CLR,FEW,0.00,WeatherDisplay:10.37,2017-03-26 12:21:00,
2017-03-26 07:26:00,39.5,39.0,-100.00,ESE,104,3.6,5.8,98,0.00,CLR,FEW,0.00,WeatherDisplay:10.37,2017-03-26 12:26:00,
2017-03-26 07:31:00,39.5,39.0,-100.00,ENE,75,4.3,9.2,98,0.00,CLR,FEW,0.00,WeatherDisplay:10.37,2017-03-26 12:31:00,
2017-03-26 07:36:00,39.6,39.1,-100.00,ENE,73,0.8,3.5,98,0.00,CLR,FEW,0.00,WeatherDisplay:10.37,2017-03-26 12:36:00,
2017-03-26 07:41:00,39.6,39.1,-100.00,East,85,1.4,4.6,98,0.00,CLR,FEW,0.00,WeatherDisplay:10.37,2017-03-26 12:41:00,
2017-03-26 07:46:00,39.7,39.2,-100.00,ENE,73,4.0,5.8,98,0.00,CLR,FEW,0.00,WeatherDisplay:10.37,2017-03-26 12:46:00,
2017-03-26 07:51:00,39.7,39.2,-100.00,NNE,18,3.9,6.9,98,0.00,CLR,FEW,0.00,WeatherDisplay:10.37,2017-03-26 12:51:00,
2017-03-26 07:56:00,39.7,39.2,-100.00,ESE,113,2.4,5.5,98,0.00,CLR,FEW,0.00,WeatherDisplay:10.37,2017-03-26 12:56:00,
2017-03-26 08:01:00,39.8,39.3,-100.00,NNE,30,3.6,5.8,98,0.00,CLR,FEW,0.00,WeatherDisplay:10.37,2017-03-26 13:01:00,
2017-03-26 08:06:00,39.8,39.3,-100.00,NE,47,4.0,6.9,98,0.00,CLR,FEW,0.00,WeatherDisplay:10.37,2017-03-26 13:06:00,
2017-03-26 08:11:00,39.8,39.3,-100.00,East,90,3.7,5.8,98,0.00,CLR,FEW,0.00,WeatherDisplay:10.37,2017-03-26 13:11:00,
2017-03-26 08:16:00,39.8,39.3,-100.00,East,88,1.0,3.5,98,0.00,CLR,FEW,0.00,WeatherDisplay:10.37,2017-03-26 13:16:00,
2017-03-26 08:21:00,39.9,39.4,-100.00,ENE,66,4.6,6.9,98,0.00,CLR,FEW,0.00,WeatherDisplay:10.37,2017-03-26 13:21:00,
2017-03-26 08:26:00,39.9,39.4,-100.00,ENE,71,3.1,4.6,98,0.00,CLR,FEW,0.00,WeatherDisplay:10.37,2017-03-26 13:26:00,
2017-03-26 08:31:00,39.9,39.4,-100.00,NE,38,3.1,6.9,98,0.00,CLR,FEW,0.00,WeatherDisplay:10.37,2017-03-26 13:31:00,
2017-03-26 08:36:00,39.9,39.4,-100.00,ESE,121,3.1,5.8,98,0.00,CLR,FEW,0.00,WeatherDisplay:10.37,2017-03-26 13:36:00,
2017-03-26 08:41:00,40.1,39.6,-100.00,ESE,117,5.4,8.1,98,0.00,CLR,FEW,0.00,WeatherDisplay:10.37,2017-03-26 13:41:00,
2017-03-26 08:46:00,40.1,39.6,-100.00,ENE,66,2.7,4.6,98,0.00,CLR,FEW,0.00,WeatherDisplay:10.37,2017-03-26 13:46:00,
2017-03-26 08:51:00,40.0,39.5,-100.00,NNE,24,3.6,6.9,98,0.00,CLR,FEW,0.00,WeatherDisplay:10.37,2017-03-26 13:51:00,
2017-03-26 08:56:00,40.1,39.6,-100.00,ESE,121,3.9,6.9,98,0.00,CLR,FEW,0.00,WeatherDisplay:10.37,2017-03-26 13:56:00,
2017-03-26 09:01:00,40.2,39.7,-100.00,East,93,1.2,4.6,98,0.00,CLR,FEW,0.00,WeatherDisplay:10.37,2017-03-26 14:01:00,
2017-03-26 09:06:00,40.2,39.7,-100.00,ENE,68,0.7,5.8,98,0.00,CLR,FEW,0.00,WeatherDisplay:10.37,2017-03-26 14:06:00,
2017-03-26 09:11:00,40.2,39.7,-100.00,ENE,68,2.5,6.9,98,0.00,CLR,FEW,0.00,WeatherDisplay:10.37,2017-03-26 14:11:00,
2017-03-26 09:16:00,40.2,39.7,-100.00,ENE,69,4.0,6.3,98,0.00,CLR,FEW,0.00,WeatherDisplay:10.37,2017-03-26 14:16:00,
2017-03-26 09:21:00,40.4,39.9,-100.00,ENE,66,4.4,5.8,98,0.00,CLR,FEW,0.00,WeatherDisplay:10.37,2017-03-26 14:21:00,
2017-03-26 09:26:00,40.4,39.9,-100.00,ENE,76,3.8,6.9,98,0.00,CLR,FEW,0.00,WeatherDisplay:10.37,2017-03-26 14:26:00,
2017-03-26 09:31:00,40.4,39.9,-100.00,ESE,116,3.9,5.8,98,0.00,CLR,FEW,0.00,WeatherDisplay:10.37,2017-03-26 14:31:00,
2017-03-26 09:36:00,40.5,40.0,-100.00,ESE,104,5.0,9.2,98,0.00,CLR,FEW,0.00,WeatherDisplay:10.37,2017-03-26 14:36:00,
2017-03-26 09:41:00,40.7,40.2,-100.00,ENE,58,4.7,6.9,98,0.00,CLR,FEW,0.00,WeatherDisplay:10.37,2017-03-26 14:41:00,
2017-03-26 09:46:00,40.6,40.1,-100.00,ENE,76,4.4,8.1,98,0.00,CLR,FEW,0.00,WeatherDisplay:10.37,2017-03-26 14:46:00,
2017-03-26 09:51:00,40.7,40.2,-100.00,NNE,23,2.1,4.6,98,0.00,CLR,FEW,0.00,WeatherDisplay:10.37,2017-03-26 14:51:00,
2017-03-26 09:52:00,40.6,40.1,-100.00,NNE,23,2.3,4.6,98,0.00,CLR,FEW,0.00,WeatherDisplay:10.37,2017-03-26 14:52:00,
2017-03-26 09:57:00,40.7,40.2,-100.00,East,92,2.6,5.8,98,0.00,CLR,FEW,0.00,WeatherDisplay:10.37,2017-03-26 14:57:00,
2017-03-26 10:02:00,40.9,40.4,-100.00,East,92,1.3,3.5,98,0.00,CLR,FEW,0.00,WeatherDisplay:10.37,2017-03-26 15:02:00,
2017-03-26 10:07:00,41.0,40.5,-100.00,ESE,103,0.6,4.6,98,0.00,CLR,FEW,0.00,WeatherDisplay:10.37,2017-03-26 15:07:00,
2017-03-26 10:12:00,41.1,40.6,-100.00,ESE,112,2.8,5.8,98,0.00,CLR,FEW,0.00,WeatherDisplay:10.37,2017-03-26 15:12:00,
2017-03-26 10:17:00,41.1,40.6,-100.00,ENE,58,4.2,5.1,98,0.00,CLR,FEW,0.00,WeatherDisplay:10.37,2017-03-26 15:17:00,
2017-03-26 10:22:00,41.1,40.6,-100.00,NE,40,2.4,5.8,98,0.00,CLR,FEW,0.00,WeatherDisplay:10.37,2017-03-26 15:22:00,
2017-03-26 10:27:00,41.3,40.8,-100.00,NNE,13,0.7,2.3,98,0.00,CLR,FEW,0.00,WeatherDisplay:10.37,2017-03-26 15:27:00,
2017-03-26 10:29:00,41.3,40.8,-100.00,NNE,28,0.5,2.3,98,0.00,CLR,FEW,0.00,WeatherDisplay:10.37,2017-03-26 15:29:00,
2017-03-26 10:34:00,41.5,41.0,-100.00,NNE,28,0.0,0.0,98,0.00,CLR,FEW,0.00,WeatherDisplay:10.37,2017-03-26 15:34:00,
2017-03-26 10:39:00,41.5,41.0,-100.00,NE,55,0.0,1.1,98,0.00,CLR,FEW,0.00,WeatherDisplay:10.37,2017-03-26 15:39:00,
2017-03-26 10:44:00,41.6,41.1,-100.00,ESE,116,1.0,3.5,98,0.00,CLR,FEW,0.00,WeatherDisplay:10.37,2017-03-26 15:44:00,
2017-03-26 10:49:00,41.7,41.2,-100.00,NNE,14,2.4,5.8,98,0.00,CLR,FEW,0.00,WeatherDisplay:10.37,2017-03-26 15:49:00,
2017-03-26 10:54:00,41.9,41.4,-100.00,NNE,24,0.6,1.7,98,0.00,CLR,FEW,0.00,WeatherDisplay:10.37,2017-03-26 15:54:00,
2017-03-26 10:59:00,41.9,41.4,-100.00,NE,49,0.5,2.3,98,0.00,CLR,FEW,0.00,WeatherDisplay:10.37,2017-03-26 15:59:00,
2017-03-26 11:04:00,42.1,41.6,-100.00,NE,56,1.4,3.9,98,0.00,CLR,FEW,0.00,WeatherDisplay:10.37,2017-03-26 16:04:00,
2017-03-26 11:09:00,42.1,41.6,-100.00,NE,47,0.0,3.5,98,0.00,CLR,FEW,0.00,WeatherDisplay:10.37,2017-03-26 16:09:00,
2017-03-26 11:14:00,42.2,41.7,-100.00,NE,47,0.0,0.0,98,0.00,CLR,FEW,0.00,WeatherDisplay:10.37,2017-03-26 16:14:00,
2017-03-26 11:19:00,42.3,41.8,-100.00,NE,47,0.0,0.0,98,0.00,CLR,FEW,0.00,WeatherDisplay:10.37,2017-03-26 16:19:00,
2017-03-26 11:24:00,42.5,42.0,-100.00,ESE,104,1.2,3.5,98,0.00,CLR,FEW,0.00,WeatherDisplay:10.37,2017-03-26 16:24:00,
2017-03-26 11:29:00,42.5,42.0,-100.00,NE,51,2.6,5.8,98,0.00,CLR,FEW,0.00,WeatherDisplay:10.37,2017-03-26 16:29:00,
2017-03-26 11:34:00,42.5,42.0,-100.00,ESE,123,3.8,5.5,98,0.00,CLR,FEW,0.00,WeatherDisplay:10.37,2017-03-26 16:34:00,
2017-03-26 11:39:00,42.6,42.1,-100.00,NE,48,1.2,2.3,98,0.00,CLR,FEW,0.00,WeatherDisplay:10.37,2017-03-26 16:39:00,
2017-03-26 11:44:00,42.8,42.3,-100.00,ESE,102,3.4,5.8,98,0.00,CLR,FEW,0.00,WeatherDisplay:10.37,2017-03-26 16:44:00,
2017-03-26 11:49:00,42.8,42.3,-100.00,East,82,3.4,4.6,98,0.00,CLR,FEW,0.00,WeatherDisplay:10.37,2017-03-26 16:49:00,
2017-03-26 11:54:00,42.9,42.4,-100.00,NE,54,2.5,5.8,98,0.00,CLR,FEW,0.00,WeatherDisplay:10.37,2017-03-26 16:54:00,
2017-03-26 11:59:00,43.0,42.5,-100.00,East,83,2.5,4.6,98,0.00,CLR,FEW,0.00,WeatherDisplay:10.37,2017-03-26 16:59:00,
2017-03-26 12:04:00,43.1,42.6,-100.00,NE,45,3.8,5.8,98,0.00,CLR,FEW,0.00,WeatherDisplay:10.37,2017-03-26 17:04:00,
2017-03-26 12:09:00,43.1,42.6,-100.00,ENE,69,4.2,5.8,98,0.00,CLR,FEW,0.00,WeatherDisplay:10.37,2017-03-26 17:09:00,
2017-03-26 12:14:00,43.3,42.8,-100.00,NE,40,0.7,3.5,98,0.00,CLR,FEW,0.00,WeatherDisplay:10.37,2017-03-26 17:14:00,
2017-03-26 12:19:00,43.4,42.9,-100.00,NNE,30,3.5,5.6,98,0.00,CLR,FEW,0.00,WeatherDisplay:10.37,2017-03-26 17:19:00,
2017-03-26 12:24:00,43.5,43.0,-100.00,NE,34,2.0,3.5,98,0.00,CLR,FEW,0.00,WeatherDisplay:10.37,2017-03-26 17:24:00,
2017-03-26 12:34:00,43.8,43.3,-100.00,ENE,65,3.0,4.4,98,0.00,CLR,FEW,0.00,WeatherDisplay:10.37,2017-03-26 17:34:00,
2017-03-26 12:39:00,43.8,43.3,-100.00,ENE,61,3.9,5.8,98,0.00,CLR,FEW,0.00,WeatherDisplay:10.37,2017-03-26 17:39:00,
2017-03-26 12:44:00,43.7,43.2,-100.00,NNE,16,2.7,3.6,98,0.00,CLR,FEW,0.00,WeatherDisplay:10.37,2017-03-26 17:44:00,
2017-03-26 12:49:00,43.7,43.2,-100.00,NNE,17,3.4,5.8,98,0.00,CLR,FEW,0.00,WeatherDisplay:10.37,2017-03-26 17:49:00,
2017-03-26 12:54:00,43.8,43.3,-100.00,NNE,32,0.5,2.3,98,0.00,CLR,FEW,0.00,WeatherDisplay:10.37,2017-03-26 17:54:00,
2017-03-26 12:59:00,43.8,43.3,-100.00,NNE,16,2.1,4.6,98,0.00,CLR,FEW,0.00,WeatherDisplay:10.37,2017-03-26 17:59:00,
2017-03-26 13:04:00,44.0,43.5,-100.00,NE,48,2.9,4.6,98,0.00,CLR,FEW,0.00,WeatherDisplay:10.37,2017-03-26 18:04:00,
2017-03-26 13:09:00,44.0,43.5,-100.00,NNE,27,3.5,5.8,98,0.00,CLR,FEW,0.00,WeatherDisplay:10.37,2017-03-26 18:09:00,
2017-03-26 13:14:00,44.0,43.5,-100.00,ENE,68,0.7,2.3,98,0.00,CLR,FEW,0.00,WeatherDisplay:10.37,2017-03-26 18:14:00,
2017-03-26 13:15:00,44.1,43.6,-100.00,NE,47,3.1,4.5,98,0.00,CLR,FEW,0.00,WeatherDisplay:10.37,2017-03-26 18:15:00,
2017-03-26 13:20:00,44.2,43.7,-100.00,ENE,61,0.0,0.0,98,0.00,CLR,FEW,0.00,WeatherDisplay:10.37,2017-03-26 18:20:00,
2017-03-26 13:25:00,44.2,43.7,-100.00,NE,38,3.9,5.8,98,0.00,CLR,FEW,0.00,WeatherDisplay:10.37,2017-03-26 18:25:00,
2017-03-26 13:30:00,44.3,43.8,-100.00,ENE,61,1.8,3.6,98,0.00,CLR,FEW,0.00,WeatherDisplay:10.37,2017-03-26 18:30:00,
2017-03-26 13:35:00,44.5,44.0,-100.00,NE,37,1.4,4.6,98,0.00,CLR,FEW,0.00,WeatherDisplay:10.37,2017-03-26 18:35:00,
2017-03-26 13:40:00,44.5,44.0,-100.00,ENE,75,2.6,4.6,98,0.00,CLR,FEW,0.00,WeatherDisplay:10.37,2017-03-26 18:40:00,
2017-03-26 13:45:00,44.7,44.2,-100.00,ENE,68,1.4,3.5,98,0.00,CLR,FEW,0.00,WeatherDisplay:10.37,2017-03-26 18:45:00,
2017-03-26 13:50:00,44.6,44.1,-100.00,North,11,1.0,2.3,98,0.00,CLR,FEW,0.00,WeatherDisplay:10.37,2017-03-26 18:50:00,
2017-03-26 13:55:00,44.6,44.1,-100.00,NNE,25,0.2,3.5,98,0.00,CLR,FEW,0.00,WeatherDisplay:10.37,2017-03-26 18:55:00,
2017-03-26 14:00:00,44.6,44.1,-100.00,North,353,0.2,2.3,98,0.00,CLR,FEW,0.00,WeatherDisplay:10.37,2017-03-26 19:00:00,
2017-03-26 14:05:00,44.6,44.1,-100.00,NNE,18,1.5,3.5,98,0.00,CLR,FEW,0.00,WeatherDisplay:10.37,2017-03-26 19:05:00,
2017-03-26 14:10:00,44.6,44.1,-100.00,NE,35,0.0,1.1,98,0.00,CLR,FEW,0.00,WeatherDisplay:10.37,2017-03-26 19:10:00,
2017-03-26 14:15:00,44.7,44.2,-100.00,NE,42,0.7,1.1,98,0.00,CLR,FEW,0.00,WeatherDisplay:10.37,2017-03-26 19:15:00,
2017-03-26 14:25:00,44.6,44.1,-100.00,NE,38,1.2,2.3,98,0.00,CLR,FEW,0.00,WeatherDisplay:10.37,2017-03-26 19:25:00,
2017-03-26 14:30:00,44.7,44.2,-100.00,North,3,1.5,2.3,98,0.00,CLR,FEW,0.00,WeatherDisplay:10.37,2017-03-26 19:30:00,
2017-03-26 14:35:00,44.6,44.1,-100.00,NE,48,2.2,3.5,98,0.00,CLR,FEW,0.00,WeatherDisplay:10.37,2017-03-26 19:35:00,
2017-03-26 14:40:00,44.8,44.3,-100.00,North,3,0.2,2.3,98,0.00,CLR,FEW,0.00,WeatherDisplay:10.37,2017-03-26 19:40:00,
2017-03-26 14:45:00,44.8,44.3,-100.00,North,3,0.0,0.0,98,0.00,CLR,FEW,0.00,WeatherDisplay:10.37,2017-03-26 19:45:00,
2017-03-26 14:50:00,44.8,44.3,-100.00,NE,44,1.1,3.5,98,0.00,CLR,FEW,0.00,WeatherDisplay:10.37,2017-03-26 19:50:00,
2017-03-26 14:55:00,45.0,44.5,-100.00,NE,49,3.0,4.7,98,0.00,CLR,FEW,0.00,WeatherDisplay:10.37,2017-03-26 19:55:00,
2017-03-26 15:00:00,44.9,44.4,-100.00,NNE,31,2.4,3.5,98,0.00,CLR,FEW,0.00,WeatherDisplay:10.37,2017-03-26 20:00:00,
2017-03-26 15:05:00,44.9,44.4,-100.00,North,356,2.7,4.3,98,0.00,CLR,FEW,0.00,WeatherDisplay:10.37,2017-03-26 20:05:00,
2017-03-26 15:10:00,45.0,44.5,-100.00,North,10,2.6,3.5,98,0.00,CLR,FEW,0.00,WeatherDisplay:10.37,2017-03-26 20:10:00,
2017-03-26 15:15:00,45.1,44.6,-100.00,NE,51,3.0,4.6,98,0.00,CLR,FEW,0.00,WeatherDisplay:10.37,2017-03-26 20:15:00,
2017-03-26 15:20:00,45.1,44.6,-100.00,NW,320,0.0,0.0,98,0.00,CLR,FEW,0.00,WeatherDisplay:10.37,2017-03-26 20:20:00,
2017-03-26 15:25:00,45.2,44.7,-100.00,NNE,25,2.3,5.8,98,0.00,CLR,FEW,0.00,WeatherDisplay:10.37,2017-03-26 20:25:00,
2017-03-26 15:30:00,45.0,44.5,-100.00,North,10,0.9,2.7,98,0.00,CLR,FEW,0.00,WeatherDisplay:10.37,2017-03-26 20:30:00,
2017-03-26 15:35:00,45.2,44.7,-100.00,NNE,20,2.6,3.5,98,0.00,CLR,FEW,0.00,WeatherDisplay:10.37,2017-03-26 20:35:00,
2017-03-26 15:45:00,45.0,44.5,-100.00,North,352,1.7,4.6,98,0.00,CLR,FEW,0.00,WeatherDisplay:10.37,2017-03-26 20:45:00,
2017-03-26 15:50:00,45.0,44.5,-100.00,NE,55,3.9,4.6,98,0.00,CLR,FEW,0.00,WeatherDisplay:10.37,2017-03-26 20:50:00,
2017-03-26 15:55:00,45.0,44.5,-100.00,North,7,2.2,4.6,98,0.00,CLR,FEW,0.00,WeatherDisplay:10.37,2017-03-26 20:55:00,
2017-03-26 16:00:00,44.9,44.4,-100.00,NE,40,1.4,4.6,98,0.00,CLR,FEW,0.00,WeatherDisplay:10.37,2017-03-26 21:00:00,
2017-03-26 16:05:00,44.8,44.3,-100.00,East,90,4.6,6.9,98,0.00,CLR,FEW,0.00,WeatherDisplay:10.37,2017-03-26 21:05:00,
2017-03-26 16:10:00,44.7,44.2,-100.00,NNE,32,2.6,2.6,98,0.00,CLR,FEW,0.00,WeatherDisplay:10.37,2017-03-26 21:10:00,
2017-03-26 16:15:00,44.7,44.2,-100.00,North,4,2.6,3.5,98,0.00,CLR,FEW,0.00,WeatherDisplay:10.37,2017-03-26 21:15:00,
2017-03-26 16:21:00,44.6,44.1,-100.00,North,353,2.7,4.6,98,0.00,CLR,FEW,0.00,WeatherDisplay:10.37,2017-03-26 21:21:00,
2017-03-26 16:26:00,44.5,44.0,-100.00,NE,47,0.7,3.5,98,0.00,CLR,FEW,0.00,WeatherDisplay:10.37,2017-03-26 21:26:00,
2017-03-26 16:31:00,44.4,43.9,-100.00,North,8,1.8,5.6,98,0.00,CLR,FEW,0.00,WeatherDisplay:10.37,2017-03-26 21:31:00,
2017-03-26 16:36:00,44.2,43.4,-100.00,North,4,2.2,3.5,97,0.00,CLR,FEW,0.00,WeatherDisplay:10.37,2017-03-26 21:36:00,
2017-03-26 16:41:00,43.9,43.1,-100.00,NNE,13,3.1,4.6,97,0.00,CLR,FEW,0.00,WeatherDisplay:10.37,2017-03-26 21:41:00,
2017-03-26 16:46:00,43.7,42.9,-100.00,NW,322,3.9,5.8,97,0.00,CLR,FEW,0.00,WeatherDisplay:10.37,2017-03-26 21:46:00,
2017-03-26 16:51:00,43.6,42.8,-100.00,North,0,2.8,4.6,97,0.00,CLR,FEW,0.00,WeatherDisplay:10.37,2017-03-26 21:51:00,
2017-03-26 17:01:00,43.3,42.5,-100.00,NNE,27,1.0,3.5,97,0.00,CLR,FEW,0.00,WeatherDisplay:10.37,2017-03-26 22:01:00,
2017-03-26 17:06:00,43.4,42.9,-100.00,NNE,23,2.7,3.5,98,0.00,CLR,FEW,0.00,WeatherDisplay:10.37,2017-03-26 22:06:00,
2017-03-26 17:11:00,43.3,42.5,-100.00,NNE,21,0.7,4.6,97,0.00,CLR,FEW,0.00,WeatherDisplay:10.37,2017-03-26 22:11:00,
2017-03-26 17:16:00,43.2,42.4,-100.00,North,3,1.7,3.5,97,0.00,CLR,FEW,0.00,WeatherDisplay:10.37,2017-03-26 22:16:00,
2017-03-26 17:21:00,42.9,42.1,-100.00,WNW,298,1.2,2.5,97,0.00,CLR,FEW,0.00,WeatherDisplay:10.37,2017-03-26 22:21:00,
2017-03-26 17:26:00,43.0,42.2,-100.00,NNW,347,2.0,3.5,97,0.00,CLR,FEW,0.00,WeatherDisplay:10.37,2017-03-26 22:26:00,
2017-03-26 17:31:00,42.9,42.1,-100.00,NE,38,3.0,4.6,97,0.00,CLR,FEW,0.00,WeatherDisplay:10.37,2017-03-26 22:31:00,
2017-03-26 17:36:00,42.7,41.9,-100.00,NW,322,0.0,1.1,97,0.00,CLR,FEW,0.00,WeatherDisplay:10.37,2017-03-26 22:36:00,
2017-03-26 17:41:00,42.6,41.8,-100.00,NE,47,0.7,4.6,97,0.00,CLR,FEW,0.00,WeatherDisplay:10.37,2017-03-26 22:41:00,
2017-03-26 17:46:00,42.5,41.7,-100.00,NNW,336,0.4,1.1,97,0.00,CLR,FEW,0.00,WeatherDisplay:10.37,2017-03-26 22:46:00,
2017-03-26 17:51:00,42.5,41.7,-100.00,NE,41,2.1,3.5,97,0.00,CLR,FEW,0.00,WeatherDisplay:10.37,2017-03-26 22:51:00,
2017-03-26 17:56:00,42.5,41.7,-100.00,WNW,302,2.5,4.6,97,0.00,CLR,FEW,0.00,WeatherDisplay:10.37,2017-03-26 22:56:00,
2017-03-26 18:01:00,42.3,41.5,-100.00,NNW,329,3.0,5.8,97,0.00,CLR,FEW,0.00,WeatherDisplay:10.37,2017-03-26 23:01:00,
2017-03-26 18:06:00,42.1,41.3,-100.00,North,349,1.5,3.5,97,0.00,CLR,FEW,0.00,WeatherDisplay:10.37,2017-03-26 23:06:00,
2017-03-26 18:11:00,42.2,41.4,-100.00,North,3,1.1,2.3,97,0.00,CLR,FEW,0.00,WeatherDisplay:10.37,2017-03-26 23:11:00,
2017-03-26 18:16:00,42.2,41.4,-100.00,NNW,328,1.4,2.3,97,0.00,CLR,FEW,0.00,WeatherDisplay:10.37,2017-03-26 23:16:00,
2017-03-26 18:21:00,42.1,41.3,-100.00,NW,323,2.1,2.3,97,0.00,CLR,FEW,0.00,WeatherDisplay:10.37,2017-03-26 23:21:00,
2017-03-26 18:26:00,42.0,41.2,-100.00,WNW,294,1.7,4.6,97,0.00,CLR,FEW,0.00,WeatherDisplay:10.37,2017-03-26 23:26:00,
2017-03-26 18:31:00,42.0,41.2,-100.00,North,353,0.7,2.3,97,0.00,CLR,FEW,0.00,WeatherDisplay:10.37,2017-03-26 23:31:00,
2017-03-26 18:36:00,41.9,41.1,-100.00,West,268,1.2,3.5,97,0.00,CLR,FEW,0.00,WeatherDisplay:10.37,2017-03-26 23:36:00,
2017-03-26 18:41:00,41.8,41.0,-100.00,WNW,292,0.1,2.3,97,0.00,CLR,FEW,0.00,WeatherDisplay:10.37,2017-03-26 23:41:00,
2017-03-26 18:46:00,41.8,41.0,-100.00,NW,325,0.0,0.0,97,0.00,CLR,FEW,0.00,WeatherDisplay:10.37,2017-03-26 23:46:00,
2017-03-26 18:51:00,41.7,40.9,-100.00,NNW,336,1.5,2.3,97,0.00,CLR,FEW,0.00,WeatherDisplay:10.37,2017-03-26 23:51:00,
2017-03-26 18:56:00,41.5,40.7,-100.00,NW,322,2.1,3.9,97,0.00,CLR,FEW,0.00,WeatherDisplay:10.37,2017-03-26 23:56:00,
2017-03-26 19:01:00,41.3,40.5,-100.00,NNE,32,0.5,2.9,97,0.00,CLR,FEW,0.00,WeatherDisplay:10.37,2017-03-27 00:01:00,
2017-03-26 19:06:00,41.3,40.5,-100.00,NNE,14,0.9,3.5,97,0.00,CLR,FEW,0.00,WeatherDisplay:10.37,2017-03-27 00:06:00,
2017-03-26 19:11:00,41.0,40.2,-100.00,NNE,24,0.1,1.1,97,0.00,CLR,FEW,0.00,WeatherDisplay:10.37,2017-03-27 00:11:00,
2017-03-26 19:16:00,41.0,40.2,-100.00,NNE,21,2.6,3.5,97,0.00,CLR,FEW,0.00,WeatherDisplay:10.37,2017-03-27 00:16:00,
2017-03-26 19:21:00,40.7,39.9,-100.00,North,0,2.0,3.5,97,0.00,CLR,FEW,0.00,WeatherDisplay:10.37,2017-03-27 00:21:00,
2017-03-26 19:26:00,40.7,39.9,-100.00,NNE,27,0.5,2.0,97,0.00,CLR,FEW,0.00,WeatherDisplay:10.37,2017-03-27 00:26:00,
2017-03-26 19:31:00,40.7,39.9,-100.00,North,356,1.4,2.3,97,0.00,CLR,FEW,0.00,WeatherDisplay:10.37,2017-03-27 00:31:00,
2017-03-26 19:36:00,40.6,39.8,-100.00,North,11,2.1,3.5,97,0.00,CLR,FEW,0.00,WeatherDisplay:10.37,2017-03-27 00:36:00,
2017-03-26 19:41:00,40.5,39.7,-100.00,North,352,1.7,4.6,97,0.00,CLR,FEW,0.00,WeatherDisplay:10.37,2017-03-27 00:41:00,
2017-03-26 19:46:00,40.4,39.6,-100.00,NNE,30,2.0,2.3,97,0.00,CLR,FEW,0.00,WeatherDisplay:10.37,2017-03-27 00:46:00,